Location: Nitra
(0.0000°N, 18.0833°E)
Time: 05:45:48
(UTC+01:00)

IRS-1C Rocket - Pass Details

Date: 24 January 2021
Orbit: 801 x 805 km, 99.0° (Epoch: 04 March)

Event Time Altitude Azimuth Distance (km) Brightness Sun altitude
Rises 18:31:34 0° 162° (SSE) 3,311 7.3 -7.5°
Reaches altitude 10° 18:33:56 10° 158° (SSE) 2,378 6.5 -8.0°
Maximum altitude 18:39:08 65° 77° (ENE) 879 4.1 -9.3°
Drops below altitude 10° 18:44:18 10° 356° (N) 2,366 6.4 -10.5°
Sets 18:46:38 0° 353° (N) 3,293 7.1 -11.0°
